This demonstration page uses our WeatherBlox Daily Observations layout. Learn more.

Left ArrowRight Arrow

31.31129, -92.44514

Hourly Observations for December 25, 2015

Temp ( °F °C ) Dew Point ( °F °C ) Humidity (%) Winds ( mph kmh ) Pressure ( in mb ) Visibility ( mi km ) Precip ( " mm )
12:53 am 00:53 Cloudy 75 23.9 72 22.2 90 90 S 9 15 29.94 1014 8 13 0.00 0.00
1:53 am 01:53 Cloudy 75 23.9 72 22.2 90 90 S 9 15 29.95 1014 8 13 0.00 0.00
2:53 am 02:53 Cloudy 75 23.9 72 22.2 90 90 S 9 15 29.95 1014 8 13 0.00 0.00
3:53 am 03:53 Cloudy 74 23.3 72 22.2 94 94 S 6 9 29.97 1015 8 13 0.00 0.00
4:02 am 04:02 Cloudy 74 23.3 72 22.2 94 94 S 6 9 29.97 1015 8 13 0.00 0.00
4:27 am 04:27 Cloudy 74 23.3 72 22.2 94 94 S 7 11 29.97 1015 7 11 0.00 0.03
4:53 am 04:53 Partly Cloudy 73 22.8 72 22.2 96 96 S 8 13 29.96 1015 7 11 0.00 0.03
5:25 am 05:25 Mostly Cloudy with Light Rain 73 22.8 72 22.2 96 96 S 8 13 29.97 1015 7 11 0.00 0.03
5:53 am 05:53 Mostly Cloudy 73 22.8 72 22.2 96 96 S 7 11 29.98 1015 8 13 0.00 0.03
6:53 am 06:53 Cloudy 74 23.3 72 22.2 94 94 S 7 11 30.00 1016 8 13 0.00 0.00
7:16 am 07:16 Cloudy 74 23.3 72 22.2 94 94 S 7 11 30.00 1016 8 13 0.00 0.00
7:27 am 07:27 Cloudy 74 23.3 72 22.2 94 94 S 8 13 30.00 1016 7 11 0.00 0.00
7:53 am 07:53 Mostly Cloudy with Mist and Fog 74 23.3 72 22.2 94 94 S 6 9 30.00 1016 6 10 0.00 0.00
8:12 am 08:12 Mostly Cloudy with Mist and Fog 75 23.9 73 22.8 94 94 S 6 9 30.00 1016 6 10 0.00 0.00
8:34 am 08:34 Cloudy with Mist and Fog 74 23.3 73 22.8 97 97 SSE 6 9 30.00 1016 6 10 0.00 0.00
8:43 am 08:43 Cloudy with Mist and Fog 74 23.3 73 22.8 97 97 SSE 5 7 30.00 1016 6 10 0.00 0.00
8:53 am 08:53 Cloudy 75 23.9 73 22.8 94 94 SSE 6 9 30.02 1017 7 11 0.00 0.00
9:27 am 09:27 Cloudy 76 24.4 73 22.8 91 91 SSW 7 11 30.03 1017 7 11 0.00 0.00
9:53 am 09:53 Cloudy 77 25 73 22.8 88 88 SW 6 9 30.04 1017 8 13 0.00 0.00
10:32 am 10:32 Cloudy 78 25.6 73 22.8 85 85 SSW 6 9 30.03 1017 8 13 0.00 0.03
10:53 am 10:53 Mostly Cloudy 79 26.1 74 23.3 85 85 S 9 15 30.02 1017 8 13 0.00 0.03
11:37 am 11:37 Cloudy 79 26.1 72 22.2 79 79 SW 8 13 30.00 1016 8 13 0.00 0.00
11:53 am 11:53 Cloudy 79 26.1 73 22.8 82 82 WSW 8 13 30.00 1016 8 13 0.00 0.00
12:27 pm 12:27 Cloudy with Light Rain 76 24.4 73 22.8 91 91 S 8 13 29.97 1015 3 4 0.07 1.78
12:34 pm 12:34 Cloudy with Light Rain 76 24.4 74 23.3 94 94 S 8 13 29.97 1015 5 8 0.07 1.78
12:53 pm 12:53 Cloudy 77 25 73 22.8 88 88 SSW 9 15 29.97 1015 8 13 0.07 1.78
1:14 pm 13:14 Cloudy with Nearby Thunderstorms 78 25.6 75 23.9 90 90 S 8 13 29.94 1014 8 13 0.00 0.00
1:39 pm 13:39 Mostly Sunny 80 26.7 75 23.9 85 85 S 8 13 29.94 1014 10 16 0.00 0.00
1:53 pm 13:53 Mostly Sunny 79 26.1 73 22.8 82 82 S 9 15 29.94 1014 10 16 0.00 0.00
2:13 pm 14:13 Partly Cloudy with Nearby Thunderstorms 78 25.6 73 22.8 85 85 S 7 11 29.94 1014 9 14 0.00 0.00
2:41 pm 14:41 Mostly Cloudy with Thunderstorms 76 24.4 73 22.8 91 91 SE 9 15 29.94 1014 10 16 0.00 0.00
2:53 pm 14:53 Mostly Cloudy with Nearby Thunderstorms 77 25 73 22.8 88 88 S 10 17 29.95 1014 10 16 0.00 0.00
3:04 pm 15:04 Mostly Cloudy 77 25 73 22.8 88 88 SSE 12 19 29.94 1014 10 16 0.00 0.00
3:24 pm 15:24 Mostly Cloudy 76 24.4 73 22.8 91 91 SSE 13 20 29.94 1014 10 16 0.00 0.00
3:53 pm 15:53 Cloudy with Thunderstorms 75 23.9 73 22.8 94 94 SSE 13 20 29.94 1014 10 16 0.00 0.03
4:53 pm 16:53 Cloudy with Thunderstorms 72 22.2 69 20.6 91 91 SSE 21 33 29.96 1015 4 6 0.04 1.02
4:55 pm 16:55 Cloudy with Strong Thunderstorms 72 22.2 69 20.6 91 91 SSE 22 35 29.94 1014 2 3 0.05 1.27
5:06 pm 17:06 Cloudy with Thunderstorms 71 21.7 69 20.6 94 94 SE 17 28 29.97 1015 3 5 0.08 2.03
5:16 pm 17:16 Cloudy with Strong Thunderstorms 71 21.7 69 20.6 94 94 S 25 41 29.97 1015 2 3 0.24 6.10
5:26 pm 17:26 Cloudy with Strong Thunderstorms 70 21.1 69 20.6 97 97 S 16 26 29.97 1015 1 1 0.59 14.99
5:33 pm 17:33 Cloudy with Strong Thunderstorms 69 20.6 69 20.6 100 100 SSE 14 22 29.97 1015 1 2 0.95 24.13
5:40 pm 17:40 Mostly Cloudy with Strong Thunderstorms 69 20.6 69 20.6 100 100 S 10 17 29.97 1015 1 1 1.39 35.31
5:46 pm 17:46 Mostly Cloudy with Strong Thunderstorms 71 21.7 69 20.6 94 94 VRB 3 6 29.97 1015 0 0 1.85 46.99
5:53 pm 17:53 Mostly Cloudy with Strong Thunderstorms 70 21.1 69 20.6 97 97 NNE 7 11 29.96 1014 0 0 2.29 58.17
5:56 pm 17:56 Mostly Cloudy with Strong Thunderstorms 70 21.1 70 21.1 100 100 NNE 10 17 29.94 1014 1 1 0.18 4.57
6:05 pm 18:05 Cloudy with Strong Thunderstorms 70 21.1 70 21.1 100 100 E 5 7 29.94 1014 1 2 0.34 8.64
6:12 pm 18:12 Cloudy with Strong Thunderstorms 70 21.1 70 21.1 100 100 ENE 3 6 29.97 1015 2 3 0.41 10.41
6:21 pm 18:21 Cloudy with Thunderstorms 70 21.1 70 21.1 100 100 VRB 5 7 29.97 1015 3 5 0.44 11.18
6:32 pm 18:32 Cloudy with Strong Thunderstorms 69 20.6 69 20.6 100 100 ENE 6 9 29.97 1015 2 3 0.59 14.99
6:40 pm 18:40 Cloudy with Thunderstorms 70 21.1 69 20.6 97 97 E 10 17 29.97 1015 3 5 0.61 15.49
6:53 pm 18:53 Cloudy with Strong Thunderstorms 69 20.6 69 20.6 100 100 E 7 11 29.98 1015 2 3 0.72 18.29
7:05 pm 19:05 Cloudy with Nearby Thunderstorms 69 20.6 69 20.6 100 100 NE 8 13 29.97 1015 2 3 0.15 3.81
7:10 pm 19:10 Cloudy with Nearby Thunderstorms 69 20.6 69 20.6 100 100 ESE 7 11 29.97 1015 3 5 0.15 3.81
7:28 pm 19:28 Cloudy with Nearby Thunderstorms 69 20.6 69 20.6 100 100 ESE 6 9 29.97 1015 6 10 0.18 4.57
7:51 pm 19:51 Cloudy with Light Rain 70 21 68 20 94 94 ENE 8 13 30.00 1016 7 11 0.19 4.83
7:53 pm 19:53 Cloudy with Light Rain 69 20.6 68 20 96 96 ENE 8 13 29.99 1016 7 11 0.19 4.83
8:53 pm 20:53 Cloudy 69 20.6 68 20 96 96 E 7 11 29.99 1016 10 16 0.01 0.25
9:10 pm 21:10 Cloudy 70 21.1 69 20.6 97 97 E 7 11 29.97 1015 10 16 0.00 0.03
9:53 pm 21:53 Cloudy 70 21.1 70 21.1 100 100 ESE 7 11 29.99 1016 10 16 0.03 0.76
10:46 pm 22:46 Cloudy with Mist and Fog 73 22.8 72 22.2 96 96 SE 7 11 30.00 1016 6 10 0.00 0.00
10:53 pm 22:53 Cloudy with Light Rain 73 22.8 72 22.2 96 96 SSE 9 15 30.00 1016 6 10 0.00 0.03
11:19 pm 23:19 Cloudy with Mist and Fog 74 23.3 73 22.8 97 97 SSE 10 17 29.97 1015 6 10 0.00 0.03
11:42 pm 23:42 Cloudy with Mist and Fog 74 23.3 73 22.8 97 97 SSE 10 17 29.97 1015 6 10 0.00 0.03
11:53 pm 23:53 Cloudy with Mist and Fog 74 23.3 73 22.8 97 97 SSE 10 17 29.98 1015 6 10 0.00 0.03

Powered by AerisWeather